[[{"header":{"parameterUnit":"m.s-1","parameterCategory":1,"la1":30.2991,"la2":30.254,"lo1":-89.0895,"lo2":-89.0444,"dy":0.0017,"dx":0.0017,"nx":28,"ny":28,"refTime":"2024-03-25T09:00:00:Z","depth":0,"parameterNumber":2,"parameterNumberName":"U-component_of_WINDS"},"data":[0,0,0,0,0,0,0,0,0,0,0,0,0,0,0,0,0,0,0,0,0,0,0,0,0,0,0,0,0,0,0,0,0,0,0,0,0,0,0,0,0,0,0,0,0,0,0,0,0,0,0,0,0,0,0,0,0,0,-7.657,-7.6571,0,-7.6702,-7.6703,-7.6705,-7.6711,-7.671,-7.6708,-7.6707,-7.6836,-7.6841,-7.6846,0,0,0,0,0,0,0,0,0,0,0,0,0,-7.6319,-7.6323,-7.657,-7.6572,-7.6573,-7.6702,-7.6703,-7.6705,-7.6711,-7.671,-7.6708,-7.6706,-7.6835,-7.684,-7.6846,0,0,0,0,0,0,0,0,0,0,0,0,0,-7.6437,-7.6325,-7.657,-7.6592,-7.6595,-7.6701,-7.6704,-7.6706,-7.6712,-7.6709,-7.6707,-7.6705,-7.6833,-7.684,-7.6847,-7.6938,0,0,-7.6869,-7.6872,0,0,0,0,0,0,0,0,-7.643,-7.6446,-7.6587,-7.6591,-7.6594,-7.6688,-7.6662,-7.6783,-7.6712,-7.6667,-7.6707,-7.6704,-7.6788,-7.6799,-7.6829,-7.6944,-7.695,-7.687,-7.6874,-7.6878,-7.688,0,0,0,0,0,0,0,-7.6422,-7.644,-7.6622,-7.6589,-7.6594,-7.6594,-7.6608,-7.6685,-7.6739,-7.6671,-7.6672,-7.6688,-7.679,-7.6822,-7.6832,-7.6952,-7.687,-7.6876,-7.6881,-7.6884,-7.7148,-7.715,0,0,0,0,0,0,-7.641,-7.6433,-7.6618,-7.6626,-7.6505,-7.66,-7.6616,-7.666,-7.6738,-7.6748,-7.669,-7.6688,-7.681,-7.6823,-7.6836,-7.6947,-7.6877,-7.6884,-7.6889,-7.7145,-7.7148,-7.7151,0,0,0,0,0,0,-7.6405,-7.6427,-7.6612,-7.653,-7.6554,-7.6607,-7.6656,-7.6664,-7.6696,-7.6752,-7.6761,-7.6712,-7.6809,-7.6826,-7.6913,-7.6952,-7.6888,-7.6894,-7.7142,-7.7146,-7.715,-7.717,0,0,0,0,0,0,-7.6397,-7.6425,-7.646,-7.6531,-7.6558,-7.6688,-7.6659,-7.6668,-7.6709,-7.6708,-7.6776,-7.6785,-7.6808,-7.6902,-7.692,-7.6961,-7.69,-7.7139,-7.7144,-7.7149,-7.7166,-7.7174,-7.7181,0,0,0,0,0,-7.6389,-7.646,-7.6462,-7.6484,-7.6605,-7.669,-7.6706,-7.6733,-7.6712,-7.6748,-7.6784,-7.6783,-7.6945,-7.6911,-7.6931,-7.6974,-7.7136,-7.7143,-7.7148,-7.7162,-7.7172,-7.7181,0,0,0,0,0,0,-7.639,-7.6469,-7.6473,-7.6569,-7.6623,-7.6691,-7.6737,-7.6742,-7.6802,-7.6798,-7.6827,-7.6843,-7.6929,-7.6961,-7.6921,-7.7067,-7.7038,-7.7049,-7.7042,-7.7052,-7.7059,-7.7048,-7.6906,0,0,0,0,0,-7.6402,-7.6467,-7.6532,-7.6611,-7.6638,-7.6683,-7.6721,-7.6738,-7.6794,-7.6816,-7.6859,-7.6912,-7.6975,-7.7016,-7.7077,-7.7172,-7.7186,-7.7212,-7.7219,-7.7225,-7.7232,-7.7284,-7.7296,-7.7171,-7.7171,-7.7171,0,0,-7.6426,-7.6478,-7.6516,-7.6612,-7.6656,-7.672,-7.6702,-7.6771,-7.6819,-7.6826,-7.6911,-7.6945,-7.7006,-7.7097,-7.7139,-7.7126,-7.7271,-7.7233,-7.7237,-7.7241,-7.7291,-7.7303,-7.7313,-7.7175,-7.7174,-7.7173,0,0,-7.6503,-7.655,-7.662,-7.6665,-7.6732,-7.6763,-7.678,-7.6848,-7.687,-7.6957,-7.6964,-7.7021,-7.7129,-7.7172,-7.7208,-7.7304,-7.7304,-7.7324,-7.7361,-7.7411,-7.7421,-7.743,-7.7462,-7.7473,-7.7332,-7.7332,-7.7332,0,-7.6524,-7.6623,-7.6655,-7.6725,-7.6766,-7.6779,-7.6849,-7.6891,-7.6974,-7.7001,-7.6987,-7.7124,-7.7166,-7.7267,-7.729,-7.732,-7.7339,-7.7314,-7.7417,-7.7426,-7.7435,-7.7466,-7.7478,-7.7333,-7.7333,-7.7333,-7.7333,0,-7.6645,-7.6714,-7.6762,-7.6845,-7.6892,-7.6961,-7.7002,-7.7046,-7.706,-7.7091,-7.7178,-7.723,-7.7301,-7.7327,-7.734,-7.743,-7.742,-7.7411,-7.7383,-7.7448,-7.7477,-7.749,-7.7336,-7.7335,-7.7335,-7.7334,0,0,-7.6723,-7.6824,-7.6841,-7.6878,-7.6955,-7.7008,-7.7078,-7.715,-7.7186,-7.7244,-7.7302,-7.7395,-7.7388,-7.7429,-7.7447,-7.7491,-7.7562,-7.7477,-7.7479,-7.7489,-7.7662,-7.7666,-7.768,-7.7564,-7.7567,-7.7569,-7.7656,0,-7.6806,-7.6933,-7.6964,-7.7072,-7.7135,-7.7149,-7.721,-7.7263,-7.7295,-7.7352,-7.7387,-7.7451,-7.7438,-7.7462,-7.7507,-7.7544,-7.7597,-7.7539,-7.7616,-7.7619,-7.7597,-7.7696,-7.77,-7.778,-7.7668,-7.767,-7.7672,0,-7.692,-7.6982,-7.7096,-7.7165,-7.7193,-7.7247,-7.7316,-7.7371,-7.7431,-7.7451,-7.7499,-7.7513,-7.7585,-7.7556,-7.7655,-7.7615,-7.7649,-7.7672,-7.7676,-7.7681,-7.7647,-7.7701,-7.7806,-7.7817,-7.7691,-7.7689,-7.7688,0,-7.6962,-7.7075,-7.7158,-7.719,-7.7272,-7.731,-7.7346,-7.7404,-7.7446,-7.7506,-7.7533,-7.76,-7.7636,-7.7688,-7.7719,-7.7696,-7.7815,-7.7789,-7.7832,-7.7831,-7.7853,-7.7851,-7.7962,-7.788,-7.788,-7.788,-7.788,0,-7.705,-7.7119,-7.7178,-7.7228,-7.7306,-7.7341,-7.7416,-7.7452,-7.7504,-7.7561,-7.7578,-7.763,-7.7671,-7.7729,-7.7754,-7.7831,-7.7848,-7.7865,-7.787,-7.7861,-7.7859,-7.7881,-7.7876,-7.7883,-7.7883,-7.7882,-7.7881,0,-7.7109,-7.7152,-7.7243,-7.7315,-7.7335,-7.7388,-7.7449,-7.7498,-7.7532,-7.7603,-7.7622,-7.7674,-7.7743,-7.7781,-7.7867,-7.7884,-7.7969,-7.7973,-7.7949,-7.7951,-7.7991,-7.7985,-7.8118,-7.8137,-7.8045,-7.8046,-7.8047,0,-7.7161,-7.7214,-7.7293,-7.7334,-7.7371,-7.7435,-7.7479,-7.7516,-7.756,-7.7634,-7.7673,-7.7744,-7.7802,-7.7911,-7.7955,-7.8022,-7.8025,-7.8068,-7.8035,-7.8025,-7.8023,-7.8018,-7.8023,-7.8072,-7.8073,-7.8073,-7.8074,0,-7.7248,-7.7267,-7.7329,-7.74,-7.7452,-7.7508,-7.7564,-7.7596,-7.7643,-7.7691,-7.7763,-7.7808,-7.7898,-7.7967,-7.8037,-7.8072,-7.808,-7.8085,-7.8098,-7.8088,-7.8071,-7.8078,-7.7962,-7.808,-7.808,-7.8079,-7.8079,-7.8079,-7.7303,-7.7351,-7.7414,-7.7484,-7.7531,-7.7583,-7.7632,-7.7673,-7.7735,-7.7811,-7.783,-7.7905,-7.7964,-7.8059,-7.8097,-7.8155,-7.8147,-7.8166,-7.817,-7.8174,-7.8174,-7.8064,-7.8168,-7.8168,-7.8168,-7.8168,-7.8168,0,-7.7388,-7.7431,-7.7494,-7.7573,-7.7628,-7.7634,-7.7697,-7.7741,-7.7808,-7.7863,-7.7921,-7.8003,-7.8071,-7.8122,-7.8191,-7.8228,-7.8233,-7.8244,-7.824,-7.8248,-7.8179,-7.816,-7.8239,-7.8239,-7.8239,-7.8239,-7.8239,-7.8238,-7.7439,-7.7521,-7.7547,-7.7652,-7.7693,-7.7769,-7.7804,-7.7852,-7.7896,-7.7988,-7.8045,-7.8079,-7.8132,-7.8205,-7.8267,-7.828,-7.8303,-7.8314,-7.8327,-7.8261,-7.8253,-7.8245,-7.8227,-7.8319,-7.8319,-7.8391,-7.8391,-7.8392]},{"header":{"parameterUnit":"m.s-1","parameterCategory":1,"la1":30.2991,"la2":30.254,"lo1":-89.0895,"lo2":-89.0444,"dy":0.0017,"dx":0.0017,"nx":28,"ny":28,"refTime":"2024-03-25T09:00:00:Z","depth":0,"parameterNumber":3,"parameterNumberName":"V-component_of_WINDS"},"data":[0,0,0,0,0,0,0,0,0,0,0,0,0,0,0,0,0,0,0,0,0,0,0,0,0,0,0,0,0,0,0,0,0,0,0,0,0,0,0,0,0,0,0,0,0,0,0,0,0,0,0,0,0,0,0,0,0,0,7.3168,7.3169,0,7.3248,7.3249,7.325,7.3213,7.3211,7.3209,7.3207,7.3284,7.3287,7.3291,0,0,0,0,0,0,0,0,0,0,0,0,0,7.298,7.2984,7.3168,7.3169,7.317,7.3248,7.3249,7.325,7.3213,7.3211,7.3209,7.3206,7.3282,7.3287,7.3292,0,0,0,0,0,0,0,0,0,0,0,0,0,7.3061,7.2985,7.3168,7.3161,7.3162,7.3248,7.3249,7.3251,7.3214,7.3211,7.3208,7.3205,7.3281,7.3287,7.3292,7.3388,0,0,7.331,7.3313,0,0,0,0,0,0,0,0,7.3056,7.3068,7.3161,7.3162,7.3162,7.3218,7.3211,7.3297,7.3215,7.3194,7.3207,7.3204,7.3264,7.3271,7.3292,7.3392,7.3395,7.3311,7.3314,7.3317,7.3318,0,0,0,0,0,0,0,7.3051,7.3064,7.32,7.3163,7.3163,7.3153,7.3161,7.3227,7.3244,7.3195,7.3193,7.3203,7.3263,7.3287,7.3294,7.3396,7.3311,7.3316,7.3319,7.3322,7.3582,7.3585,0,0,0,0,0,0,7.3046,7.306,7.3197,7.3202,7.3101,7.3159,7.3168,7.3203,7.3244,7.3247,7.3206,7.3201,7.3278,7.3287,7.3296,7.3414,7.3317,7.3322,7.3326,7.3579,7.3583,7.3586,0,0,0,0,0,0,7.3042,7.3059,7.3194,7.313,7.3147,7.3166,7.3205,7.3206,7.3229,7.3252,7.3254,7.3227,7.3276,7.3288,7.3367,7.3416,7.3325,7.333,7.3574,7.358,7.3584,7.3648,0,0,0,0,0,0,7.3037,7.3057,7.3095,7.3132,7.315,7.3264,7.3208,7.321,7.324,7.3235,7.3272,7.3275,7.3275,7.3358,7.3373,7.3422,7.3335,7.357,7.3577,7.3583,7.3642,7.3655,7.3666,0,0,0,0,0,7.303,7.3107,7.3097,7.3113,7.3198,7.3267,7.3278,7.3278,7.3244,7.3282,7.3297,7.3274,7.3408,7.3367,7.3383,7.3435,7.3567,7.3575,7.3582,7.3637,7.3653,7.3666,0,0,0,0,0,0,7.3073,7.3112,7.31,7.3192,7.3227,7.3261,7.3308,7.3294,7.3337,7.3331,7.3327,7.3335,7.3418,7.3434,7.3387,7.3531,7.3482,7.3494,7.3518,7.3534,7.3545,7.354,7.334,0,0,0,0,0,7.3093,7.3148,7.3178,7.3256,7.3275,7.3289,7.3319,7.3316,7.3351,7.3365,7.3385,7.3419,7.3469,7.3502,7.3549,7.3644,7.3652,7.3688,7.37,7.371,7.372,7.3774,7.3791,7.3612,7.3611,7.3611,0,0,7.3135,7.3163,7.3197,7.3266,7.3292,7.3349,7.3301,7.3361,7.3403,7.3373,7.3451,7.3467,7.3504,7.3593,7.3632,7.3608,7.3771,7.372,7.3727,7.3732,7.3784,7.3801,7.3816,7.3617,7.3616,7.3615,0,0,7.3241,7.3267,7.3337,7.3366,7.3408,7.3417,7.3434,7.3471,7.3482,7.3559,7.3539,7.3588,7.3673,7.3702,7.3728,7.3848,7.383,7.3863,7.3927,7.398,7.3994,7.4007,7.4052,7.4068,7.3873,7.3873,7.3873,0,7.3287,7.3373,7.3373,7.3438,7.3469,7.3448,7.3518,7.3545,7.36,7.3622,7.3594,7.3704,7.3727,7.3824,7.3854,7.3874,7.3894,7.3859,7.3992,7.4005,7.4017,7.406,7.4076,7.3877,7.3877,7.3876,7.3876,0,7.3429,7.3489,7.354,7.3597,7.3634,7.37,7.3711,7.3748,7.3743,7.3755,7.3835,7.3863,7.3917,7.3939,7.3933,7.4035,7.402,7.3993,7.3943,7.4038,7.4078,7.4095,7.3883,7.3881,7.388,7.3879,0,0,7.3563,7.3622,7.3641,7.3668,7.3715,7.376,7.3826,7.3882,7.3915,7.3953,7.4009,7.4084,7.4061,7.409,7.4087,7.4133,7.423,7.4101,7.4101,7.4126,7.4348,7.4369,7.4388,7.4218,7.4221,7.4224,7.4345,0,7.3674,7.3793,7.3797,7.3905,7.3961,7.3943,7.4001,7.4035,7.4049,7.4098,7.4112,7.4166,7.413,7.4148,7.4193,7.4209,7.4275,7.42,7.427,7.4273,7.4264,7.4409,7.4431,7.4545,7.4361,7.4363,7.4365,0,7.3819,7.3867,7.3982,7.4023,7.4047,7.4099,7.4152,7.4199,7.4238,7.4245,7.428,7.4271,7.4338,7.4287,7.4381,7.433,7.4359,7.4371,7.4376,7.4383,7.4326,7.4422,7.458,7.4598,7.439,7.4388,7.4386,0,7.3909,7.4,7.4082,7.4105,7.4155,7.4193,7.4215,7.4251,7.4286,7.4331,7.4353,7.4405,7.4433,7.4473,7.4479,7.4441,7.4574,7.4522,7.4582,7.4582,7.4612,7.461,7.4779,7.4628,7.4627,7.4627,7.4627,0,7.4033,7.4105,7.4124,7.4174,7.4254,7.4257,7.4336,7.4355,7.4388,7.4442,7.4427,7.4477,7.4481,7.4533,7.4537,7.4615,7.4627,7.4635,7.4636,7.4638,7.4637,7.4657,7.465,7.4632,7.4631,7.463,7.4629,0,7.4147,7.4162,7.425,7.4292,7.4304,7.4361,7.4396,7.4444,7.4457,7.4525,7.4541,7.4561,7.4622,7.4631,7.47,7.4703,7.4799,7.479,7.4786,7.4786,7.4846,7.4841,7.5035,7.5062,7.4891,7.4893,7.4894,0,7.4226,7.4282,7.433,7.4367,7.4392,7.4449,7.4486,7.4491,7.4529,7.458,7.4622,7.4681,7.4729,7.4826,7.4846,7.49,7.4894,7.4958,7.4902,7.4903,7.4898,7.4895,7.4902,7.4969,7.4971,7.4973,7.4974,0,7.4367,7.4373,7.4426,7.4484,7.4528,7.4572,7.4614,7.4644,7.4655,7.4698,7.4762,7.4799,7.4873,7.4932,7.4986,7.5007,7.4994,7.4992,7.5009,7.5012,7.5009,7.5014,7.4818,7.4987,7.4986,7.4985,7.4984,7.4984,7.4468,7.4517,7.4561,7.4621,7.4654,7.4695,7.4744,7.4764,7.4818,7.488,7.4879,7.4949,7.4988,7.506,7.5086,7.514,7.5119,7.5143,7.5149,7.5156,7.5163,7.5,7.5149,7.5149,7.5148,7.5148,7.5148,0,7.461,7.4638,7.4694,7.4755,7.4803,7.4788,7.4834,7.4875,7.4938,7.4977,7.5026,7.5099,7.5158,7.5183,7.5241,7.5279,7.5275,7.5295,7.5293,7.5298,7.5177,7.5158,7.5298,7.5298,7.5298,7.5298,7.5298,7.5298,7.469,7.4774,7.4785,7.4886,7.4913,7.4983,7.5012,7.5049,7.5081,7.5165,7.5215,7.5232,7.5266,7.5326,7.538,7.5385,7.5408,7.5432,7.5435,7.5321,7.5306,7.5292,7.5274,7.5436,7.5436,7.5552,7.5553,7.5554]}]]